1530590400.96,26373,15.25,73786.8,-1.05,-29.89,-30.39,0,*54
1530590402.2,26374,15.25,73780.5,-1.07,-30.01,-30.45,0,*52
1530590403.43,26375,15.25,73786.5,-1.07,-30.01,-30.45,0,*53
1530590404.72,26376,15.25,73784.5,-1.05,-29.89,-30.39,0,*51
1530590405.97,26377,15.25,73786.0,-1.05,-29.73,-30.23,0,*5E
1530590407.23,26378,15.25,73780.5,-1.05,-29.73,-30.11,0,*50
1530590408.49,26379,15.25,73782.0,-1.05,-29.67,-30.05,0,*51
1530590409.75,26380,15.25,73782.0,-1.05,-29.89,-30.27,0,*57
1530590411.03,26381,15.25,73782.8,-1.05,-29.89,-30.39,0,*59
1530590412.25,26382,15.25,73786.3,-1.07,-29.95,-30.45,0,*5E
1530590413.48,26383,15.25,73780.3,-1.07,-30.01,-30.45,0,*5A
1530590414.75,26384,15.25,73780.5,-1.05,-29.89,-30.27,0,*53
1530590416.03,26385,15.25,73786.5,-1.05,-29.89,-30.39,0,*5D
1530590417.25,26386,15.25,73786.0,-1.07,-29.95,-30.45,0,*5A
1530590418.49,26387,15.25,73780.0,-1.05,-29.95,-30.45,0,*59
1530590419.72,26388,15.25,73782.8,-1.07,-29.95,-30.39,0,*5F
1530590420.96,26389,15.25,73782.8,-1.05,-29.83,-30.23,0,*50
1530590422.22,26390,15.25,73784.3,-1.05,-29.73,-30.27,0,*53
1530590423.47,26391,15.25,73782.0,-1.05,-29.83,-30.39,0,*52
1530590424.73,26392,15.25,73782.3,-1.03,-30.05,-30.55,0,*5B
1530590425.99,26393,15.25,73782.5,-1.05,-30.11,-30.61,0,*5E
1530590427.24,26394,15.25,73782.5,-1.07,-30.17,-30.67,0,*5B
1530590428.5,26395,15.25,73780.3,-1.05,-30.23,-30.61,0,*59
1530590429.76,26396,15.25,73784.8,-1.05,-30.23,-30.77,0,*5D
1530590430.99,26397,15.25,73784.3,-1.07,-30.45,-30.95,0,*52
1530590432.25,26398,15.25,73784.3,-1.07,-30.61,-31.11,0,*56
1530590433.5,26399,15.25,73782.8,-1.05,-30.45,-30.95,0,*5E
1530590434.72,26400,15.25,73780.0,-1.07,-30.45,-30.95,0,*5B
1530590435.96,26401,15.25,73780.3,-1.07,-30.27,-30.95,0,*5E
1530590437.17,26402,15.25,73786.5,-1.07,-30.45,-31.01,0,*55
1530590438.39,26403,15.25,73782.5,-1.11,-30.45,-30.95,0,*5F
1530590439.62,26404,15.25,73786.0,-1.11,-30.51,-31.01,0,*51
1530590440.85,26405,15.25,73786.8,-1.11,-30.51,-31.01,0,*50
1530590442.08,26406,15.25,73784.3,-1.11,-30.45,-30.95,0,*5A
1530590443.31,26407,15.25,73782.3,-1.11,-30.45,-30.77,0,*57
1530590444.58,26408,15.25,73782.5,-1.13,-30.23,-30.73,0,*5E
1530590445.79,26409,15.25,73786.3,-1.11,-30.11,-30.45,0,*59
1530590447.0,26410,15.25,73790.5,-1.11,-29.95,-30.33,0,*54
1530590448.28,26411,15.25,73784.8,-1.13,-30.01,-30.39,0,*58
1530590449.52,26412,15.25,73786.0,-1.11,-29.79,-30.17,0,*52
1530590450.78,26413,15.25,73782.5,-1.13,-29.13,-29.61,0,*54
1530590452.01,26414,15.25,73782.3,-1.11,-28.97,-29.39,0,*51
1530590453.26,26415,15.25,73782.5,-1.11,-29.13,-29.73,0,*53
1530590454.51,26416,15.25,73780.0,-1.07,-29.45,-30.01,0,*59
1530590455.77,26417,15.25,73778.5,-1.05,-29.57,-30.05,0,*5D
1530590457.03,26418,15.25,73778.5,-1.07,-29.73,-30.17,0,*55
1530590458.24,26419,15.25,73776.5,-1.07,-29.57,-30.11,0,*54
1530590459.48,26420,15.25,73774.8,-1.05,-29.67,-30.23,0,*5E
1530590460.71,26421,15.25,73778.3,-1.11,-29.73,-30.11,0,*5E
1530590461.97,26422,15.25,73776.8,-1.11,-29.29,-29.89,0,*5B
1530590463.24,26423,15.25,73774.0,-1.11,-29.39,-30.01,0,*53
1530590464.48,26424,15.25,73772.8,-1.07,-29.57,-30.01,0,*5B
1530590465.72,26425,15.25,73776.0,-1.07,-29.45,-30.01,0,*59
1530590467.0,26426,15.25,73774.3,-1.07,-29.39,-29.89,0,*59
1530590468.24,26427,15.25,73776.3,-1.07,-29.57,-30.01,0,*58
1530590469.48,26428,15.25,73778.5,-1.07,-29.39,-29.79,0,*58
1530590470.74,26429,15.25,73776.3,-1.05,-29.39,-29.95,0,*59
1530590472.0,26430,15.25,73776.3,-1.05,-29.51,-29.95,0,*5F
1530590473.22,26431,15.25,73776.3,-1.07,-29.57,-29.95,0,*5A
1530590474.5,26432,15.25,73772.0,-1.05,-29.17,-29.73,0,*57
1530590475.73,26433,15.31,73780.5,-1.07,-29.23,-29.73,0,*53
1530590477.0,26434,15.25,73774.3,-1.05,-29.39,-29.95,0,*55
1530590478.29,26435,15.25,73774.3,-1.05,-29.39,-29.89,0,*59
1530590479.55,26436,15.25,73778.8,-1.05,-29.51,-29.95,0,*59
1530590480.81,26437,15.25,73778.0,-1.05,-29.57,-30.05,0,*5F
1530590482.1,26438,15.25,73772.5,-1.05,-29.51,-30.05,0,*56
1530590483.37,26439,15.25,73778.0,-1.05,-29.51,-29.95,0,*56
1530590484.63,26440,15.25,73772.3,-1.05,-29.57,-30.05,0,*5F
1530590485.86,26441,15.25,73774.5,-1.05,-29.83,-30.27,0,*57
1530590487.1,26442,15.25,73778.5,-1.05,-29.83,-30.27,0,*54
1530590488.34,26443,15.25,73774.0,-1.05,-29.67,-30.23,0,*5B
1530590489.59,26444,15.25,73778.0,-1.05,-29.73,-30.23,0,*59
1530590490.8,26445,15.25,73778.0,-1.03,-29.67,-30.11,0,*5A
1530590492.04,26446,15.25,73778.0,-1.03,-29.39,-29.83,0,*51
1530590493.28,26447,15.25,73778.8,-1.03,-29.39,-29.83,0,*50
1530590494.53,26448,15.25,73776.5,-1.03,-29.39,-29.83,0,*5F
1530590495.79,26449,15.25,73772.8,-1.01,-29.29,-29.83,0,*5D
1530590497.03,26450,15.25,73778.0,-1.03,-29.51,-29.95,0,*5F
1530590498.29,26451,15.25,73776.3,-1.01,-29.61,-30.01,0,*5A
1530590499.5,26452,15.25,73776.5,-1.03,-29.67,-30.11,0,*5C
1530590500.71,26453,15.25,73776.5,-1.03,-29.57,-30.11,0,*5E
1530590501.92,26454,15.25,73778.5,-1.03,-29.67,-30.11,0,*5A
1530590503.15,26455,15.25,73776.0,-1.03,-29.67,-30.05,0,*5E
1530590504.45,26456,15.25,73778.5,-1.01,-29.51,-30.01,0,*5E
1530590505.72,26457,15.25,73776.5,-1.01,-29.51,-30.23,0,*5F
1530590506.98,26458,15.25,73776.8,-1.01,-29.67,-30.17,0,*52
1530590508.22,26459,15.25,73782.0,-1.03,-29.73,-30.27,0,*57
1530590509.48,26460,15.25,73778.3,-1.01,-29.67,-30.05,0,*5A
1530590510.69,26461,15.25,73774.0,-1.03,-29.83,-30.27,0,*53
1530590511.93,26462,15.25,73780.8,-1.03,-29.89,-30.27,0,*5A
1530590513.16,26463,15.25,73778.0,-1.03,-29.73,-30.27,0,*5E
1530590514.4,26464,15.25,73778.0,-1.03,-29.83,-30.39,0,*59
1530590515.63,26465,15.25,73776.3,-1.03,-29.83,-30.55,0,*52
1530590516.84,26466,15.25,73780.8,-1.03,-29.83,-30.23,0,*50
1530590518.08,26467,15.25,73778.0,-1.05,-29.67,-30.23,0,*5D
1530590519.37,26468,15.25,73780.3,-1.05,-29.89,-30.39,0,*59
1530590520.6,26469,15.25,73776.3,-1.03,-30.05,-30.45,0,*59
1530590521.84,26470,15.25,73780.0,-1.03,-29.95,-30.61,0,*56
1530590523.05,26471,15.25,73782.0,-1.03,-29.95,-30.45,0,*51
1530590524.27,26472,15.25,73778.5,-1.03,-29.83,-30.27,0,*51
1530590525.51,26473,15.25,73780.8,-1.03,-29.89,-30.45,0,*5E
1530590526.77,26474,15.25,73780.0,-1.05,-29.83,-30.39,0,*5E
1530590528.05,26475,15.25,73780.5,-1.05,-29.89,-30.39,0,*55
1530590529.28,26476,15.25,73776.0,-1.05,-29.83,-30.11,0,*56
1530590530.55,26477,15.25,73772.3,-1.05,-29.57,-30.05,0,*5B
1530590531.83,26478,15.25,73772.0,-1.05,-29.51,-30.05,0,*52
1530590533.1,26479,15.25,73776.0,-1.05,-29.51,-29.95,0,*52
1530590534.34,26480,15.25,73774.0,-1.03,-29.51,-29.95,0,*52
1530590535.61,26481,15.25,73772.5,-1.03,-29.39,-29.89,0,*50
1530590536.87,26482,15.25,73772.0,-1.03,-29.39,-29.89,0,*53
1530590538.09,26483,15.25,73774.3,-1.03,-29.83,-30.27,0,*5F
1530590539.3,26484,15.25,73772.8,-1.03,-29.57,-30.11,0,*54
1530590540.56,26485,15.25,73774.8,-1.01,-29.45,-30.01,0,*55
1530590541.8,26486,15.25,73772.3,-1.03,-29.39,-29.95,0,*5A
1530590543.04,26487,15.25,73778.5,-1.03,-29.39,-29.95,0,*5B
1530590544.28,26488,15.25,73778.3,-1.01,-29.67,-30.23,0,*58
1530590545.49,26489,15.25,73776.5,-1.03,-29.83,-30.45,0,*51
1530590546.73,26490,15.25,73778.0,-1.01,-29.67,-30.23,0,*51
1530590547.94,26491,15.25,73778.0,-1.03,-29.83,-30.27,0,*5C
1530590549.18,26492,15.25,73774.5,-1.03,-29.89,-30.27,0,*55
1530590550.42,26493,15.25,73778.5,-1.03,-29.89,-30.27,0,*54
1530590551.63,26494,15.25,73776.0,-1.03,-29.67,-30.27,0,*53
1530590552.85,26495,15.25,73776.3,-1.03,-29.83,-30.27,0,*58
1530590554.09,26496,15.25,73776.8,-1.03,-29.89,-30.45,0,*55
1530590555.32,26497,15.25,73776.8,-1.01,-29.79,-30.33,0,*58
1530590556.54,26498,15.31,73780.5,-1.03,-29.95,-30.45,0,*56
1530590557.78,26499,15.25,73780.0,-1.01,-29.79,-30.33,0,*56
1530590559.01,26500,15.25,73780.3,-1.03,-29.89,-30.27,0,*5F
1530590560.25,26501,15.25,73780.3,-1.03,-29.89,-30.45,0,*5A
1530590561.49,26502,15.25,73778.8,-1.05,-29.95,-30.45,0,*52
1530590562.75,26503,15.25,73780.5,-1.05,-29.95,-30.39,0,*58
1530590563.98,26504,15.25,73784.3,-1.03,-29.95,-30.39,0,*59
1530590565.25,26505,15.25,73780.0,-1.05,-29.89,-30.45,0,*58
1530590566.51,26506,15.25,73782.5,-1.05,-29.89,-30.45,0,*5B
1530590567.75,26507,15.25,73784.3,-1.07,-30.01,-30.45,0,*50
1530590568.98,26508,15.25,73782.3,-1.05,-29.95,-30.45,0,*58
1530590570.22,26509,15.25,73778.0,-1.05,-29.95,-30.45,0,*59
1530590571.46,26510,15.25,73782.5,-1.07,-30.01,-30.45,0,*56
1530590572.74,26511,15.25,73782.0,-1.05,-29.89,-30.39,0,*56
1530590574.03,26512,15.25,73780.8,-1.05,-29.89,-30.39,0,*55
1530590575.27,26513,15.25,73780.5,-1.07,-29.95,-30.51,0,*55
1530590576.53,26514,15.25,73780.3,-1.05,-29.95,-30.55,0,*54
1530590577.79,26515,15.25,73780.3,-1.07,-30.17,-30.61,0,*52
1530590579.06,26516,15.25,73784.0,-1.07,-30.01,-30.61,0,*56
1530590580.31,26517,15.31,73782.3,-1.07,-29.89,-30.33,0,*58
1530590581.56,26518,15.25,73780.8,-1.05,-29.73,-30.23,0,*51
1530590582.8,26519,15.25,73780.0,-1.07,-29.79,-30.17,0,*5F
1530590584.06,26520,15.25,73780.0,-1.05,-29.51,-30.11,0,*5B
1530590585.3,26521,15.25,73780.3,-1.05,-29.57,-30.11,0,*5C
1530590586.53,26522,15.25,73778.3,-1.05,-29.67,-30.11,0,*5C
1530590587.74,26523,15.31,73778.3,-1.07,-29.61,-30.11,0,*59
1530590588.98,26524,15.25,73776.5,-1.07,-29.79,-30.17,0,*51
1530590590.22,26525,15.25,73778.0,-1.07,-29.73,-30.33,0,*5C
1530590591.48,26526,15.31,73776.0,-1.05,-29.67,-30.05,0,*5D
1530590592.69,26527,15.25,73776.0,-1.07,-29.61,-30.11,0,*5D
1530590593.91,26528,15.25,73776.8,-1.07,-29.57,-30.11,0,*57
1530590595.14,26529,15.31,73776.8,-1.05,-29.57,-30.11,0,*54
1530590596.4,26530,15.25,73774.0,-1.05,-29.57,-30.05,0,*59
1530590597.64,26531,15.25,73774.8,-1.07,-29.61,-30.17,0,*5C
1530590598.88,26532,15.25,73776.3,-1.05,-29.57,-29.95,0,*5A
1530590600.18,26533,15.25,73776.3,-1.05,-29.51,-29.89,0,*50
1530590601.42,26534,15.25,73778.5,-1.07,-29.57,-30.01,0,*5B
1530590602.66,26535,15.25,73778.0,-1.07,-29.61,-30.01,0,*5F
1530590603.92,26536,15.31,73780.3,-1.05,-29.51,-29.95,0,*58
1530590605.16,26537,15.31,73780.5,-1.07,-29.57,-30.05,0,*5C
1530590606.42,26538,15.25,73782.3,-1.05,-29.67,-30.05,0,*52
1530590607.68,26539,15.31,73780.5,-1.05,-29.67,-30.05,0,*53
1530590608.93,26540,15.25,73780.0,-1.05,-29.73,-30.11,0,*5D
1530590610.17,26541,15.25,73780.8,-1.05,-29.67,-30.23,0,*58
1530590611.42,26542,15.25,73780.0,-1.05,-29.73,-30.11,0,*5F
1530590612.68,26543,15.31,73780.5,-1.05,-29.67,-30.05,0,*5E
1530590613.94,26544,15.25,73778.5,-1.05,-29.51,-29.95,0,*5D
1530590615.21,26545,15.31,73782.0,-1.05,-29.39,-29.95,0,*52
1530590616.47,26546,15.25,73778.5,-1.05,-29.39,-29.95,0,*51
1530590617.73,26547,15.25,73780.5,-1.05,-29.17,-29.67,0,*51
1530590618.98,26548,15.31,73780.5,-1.05,-29.23,-29.73,0,*5C
1530590620.25,26549,15.25,73778.5,-1.03,-29.01,-29.51,0,*5B
1530590621.49,26550,15.31,73786.3,-1.03,-29.35,-29.83,0,*5B
1530590622.76,26551,15.25,73782.0,-1.03,-29.39,-29.89,0,*5C
1530590624.0,26552,15.31,73786.5,-1.03,-29.39,-29.95,0,*52
1530590625.27,26553,15.25,73782.3,-1.03,-29.39,-29.89,0,*5E
1530590626.53,26554,15.31,73786.5,-1.05,-29.39,-29.83,0,*55
1530590627.77,26555,15.31,73786.0,-1.05,-29.07,-29.67,0,*53
1530590628.98,26556,15.25,73786.3,-1.03,-29.07,-29.57,0,*55
1530590630.25,26557,15.31,73786.0,-1.03,-28.91,-29.51,0,*5C
1530590631.48,26558,15.31,73782.3,-1.01,-28.97,-29.45,0,*52
1530590632.72,26559,15.31,73782.5,-1.03,-28.53,-28.91,0,*51
1530590633.98,26560,15.31,73780.0,-1.01,-28.43,-28.85,0,*5D
1530590635.23,26561,15.31,73782.3,-1.01,-28.47,-28.97,0,*5B
1530590636.51,26562,15.31,73778.5,-1.01,-28.59,-29.01,0,*59
1530590637.73,26563,15.31,73776.3,-0.99,-28.31,-28.75,0,*64
1530590638.98,26564,15.31,73778.0,-0.97,-28.21,-28.69,0,*61
1530590640.23,26565,15.31,73776.3,-0.97,-28.37,-28.75,0,*6A
1530590641.5,26566,15.31,73776.3,-0.97,-28.59,-29.13,0,*60
1530590642.75,26567,15.25,73774.0,-0.95,-29.01,-29.39,0,*67
1530590644.0,26568,15.31,73776.3,-0.95,-29.01,-29.39,0,*68
1530590645.23,26569,15.31,73774.5,-0.95,-29.17,-29.67,0,*65
1530590646.44,26570,15.31,73776.0,-0.95,-29.07,-29.57,0,*6F
1530590647.69,26571,15.25,73770.5,-0.95,-29.01,-29.51,0,*6E
1530590648.95,26572,15.31,73774.0,-0.93,-29.35,-29.79,0,*66
1530590650.17,26573,15.31,73776.8,-0.95,-29.23,-29.73,0,*6C
1530590651.43,26574,15.31,73772.3,-0.93,-29.17,-29.67,0,*6F
1530590652.63,26575,15.31,73778.3,-0.95,-29.23,-29.79,0,*60
1530590653.82,26576,15.31,73774.5,-0.95,-29.23,-29.79,0,*63
1530590655.05,26577,15.31,73778.0,-0.95,-29.17,-29.57,0,*69
1530590656.26,26578,15.31,73774.3,-0.95,-29.23,-29.67,0,*62
1530590657.51,26579,15.31,73778.0,-0.95,-29.17,-29.73,0,*61
1530590658.73,26580,15.31,73778.5,-0.95,-29.07,-29.39,0,*68
1530590659.98,26581,15.31,73776.0,-0.93,-28.85,-29.39,0,*64
1530590661.24,26582,15.31,73778.5,-0.95,-28.91,-29.39,0,*64
1530590662.49,26583,15.31,73776.0,-0.93,-29.01,-29.57,0,*63
1530590663.72,26584,15.31,73778.3,-0.93,-29.23,-29.67,0,*67
1530590664.95,26585,15.31,73776.5,-0.93,-29.07,-29.67,0,*60
1530590666.17,26586,15.31,73778.3,-0.93,-29.23,-29.79,0,*6A
1530590667.39,26587,15.31,73778.5,-0.93,-29.23,-29.79,0,*6B
1530590668.65,26588,15.31,73780.0,-0.93,-29.17,-29.57,0,*6F
1530590669.9,26589,15.31,73780.5,-0.93,-29.17,-29.67,0,*6D
1530590671.13,26590,15.31,73778.3,-0.93,-29.07,-29.57,0,*67
1530590672.35,26591,15.31,73780.3,-0.93,-29.23,-29.57,0,*60
1530590673.58,26592,15.31,73780.5,-0.93,-29.07,-29.67,0,*66
1530590674.81,26593,15.31,73778.0,-0.93,-29.07,-29.67,0,*67
1530590676.03,26594,15.31,73778.5,-0.93,-29.23,-29.79,0,*69
1530590677.28,26595,15.31,73776.5,-0.93,-29.23,-29.73,0,*62
1530590678.54,26596,15.31,73776.8,-0.93,-29.35,-29.79,0,*6C
1530590679.79,26597,15.31,73778.3,-0.91,-29.29,-29.73,0,*68
1530590681.04,26598,15.31,73778.5,-0.91,-29.35,-29.73,0,*6A
1530590682.27,26599,15.31,73778.8,-0.91,-29.29,-29.83,0,*69
1530590683.51,26600,15.31,73780.5,-0.91,-29.35,-29.83,0,*67
1530590684.72,26601,15.31,73780.0,-0.91,-29.45,-29.83,0,*61
1530590686.0,26602,15.31,73780.5,-0.93,-29.51,-30.05,0,*63
1530590687.25,26603,15.31,73778.3,-0.93,-29.57,-30.05,0,*64
1530590688.54,26604,15.31,73778.3,-0.93,-29.39,-29.89,0,*67
1530590689.83,26605,15.31,73782.3,-0.93,-29.35,-29.89,0,*6A
1530590691.08,26606,15.31,73780.0,-0.93,-29.51,-29.95,0,*66
1530590692.37,26607,15.31,73782.0,-0.93,-29.51,-29.89,0,*6A
1530590693.65,26608,15.31,73776.8,-0.93,-29.51,-30.05,0,*69
1530590694.91,26609,15.31,73780.8,-0.93,-29.39,-29.95,0,*67
1530590696.17,26610,15.31,73780.3,-0.93,-29.51,-29.95,0,*61
1530590697.45,26611,15.31,73778.5,-0.93,-29.39,-29.89,0,*63
1530590698.74,26612,15.31,73786.0,-0.93,-29.35,-29.89,0,*6C
1530590700.03,26613,15.31,73780.8,-0.93,-29.35,-29.89,0,*6D
1530590701.23,26614,15.31,73782.8,-0.95,-29.23,-29.79,0,*64
1530590702.45,26615,15.31,73786.0,-0.91,-29.29,-29.83,0,*6E
1530590703.68,26616,15.31,73784.8,-0.91,-29.29,-29.83,0,*6D
1530590704.91,26617,15.31,73782.0,-0.91,-29.45,-30.05,0,*60
1530590706.14,26618,15.31,73784.3,-0.93,-29.67,-30.23,0,*69
1530590707.39,26619,15.31,73782.5,-0.93,-29.73,-30.23,0,*6D
1530590708.62,26620,15.31,73782.5,-0.93,-29.67,-30.11,0,*63
1530590709.84,26621,15.31,73784.0,-0.93,-29.67,-30.11,0,*62
1530590711.07,26622,15.31,73780.8,-0.95,-29.73,-30.27,0,*67
1530590712.32,26623,15.31,73782.5,-0.93,-29.73,-30.23,0,*64
1530590713.54,26624,15.31,73784.8,-0.93,-29.67,-30.11,0,*67
1530590714.8,26625,15.31,73782.3,-0.93,-29.57,-30.05,0,*60
1530590716.05,26626,15.31,73782.5,-0.93,-29.51,-29.95,0,*64
1530590717.34,26627,15.31,73782.5,-0.93,-29.51,-29.89,0,*68
1530590718.57,26628,15.31,73786.0,-0.95,-29.57,-30.05,0,*6B
1530590719.83,26629,15.31,73784.5,-0.93,-29.67,-30.05,0,*6F
1530590721.03,26630,15.31,73782.3,-0.95,-29.67,-30.11,0,*64
1530590722.26,26631,15.31,73784.8,-0.95,-29.57,-30.05,0,*63
1530590723.49,26632,15.31,73786.8,-0.93,-29.57,-29.95,0,*67
1530590724.74,26633,15.31,73784.5,-0.93,-29.67,-30.05,0,*64
1530590725.97,26634,15.31,73786.5,-0.93,-29.57,-29.95,0,*61
1530590727.18,26635,15.31,73782.5,-0.95,-29.57,-29.95,0,*66
1530590728.46,26636,15.31,73784.5,-0.93,-29.35,-29.89,0,*6A
1530590729.71,26637,15.31,73784.5,-0.93,-29.23,-29.73,0,*69
1530590731.0,26638,15.31,73786.8,-0.93,-29.01,-29.51,0,*66
1530590732.27,26639,15.31,73790.3,-0.93,-29.01,-29.39,0,*69
1530590733.55,26640,15.31,73784.3,-0.93,-29.01,-29.51,0,*69
1530590734.82,26641,15.31,73786.5,-0.93,-29.17,-29.73,0,*6F
1530590736.07,26642,15.31,73786.8,-0.91,-29.17,-29.73,0,*6E
1530590737.32,26643,15.31,73788.0,-0.89,-29.29,-29.83,0,*64
1530590738.58,26644,15.31,73788.8,-0.91,-29.35,-30.01,0,*65
1530590739.81,26645,15.31,73790.8,-0.91,-29.61,-30.01,0,*65
1530590741.05,26646,15.31,73786.5,-0.91,-29.61,-30.01,0,*66
1530590742.28,26647,15.31,73788.5,-0.89,-29.45,-29.83,0,*6A
1530590743.52,26648,15.31,73786.0,-0.89,-29.29,-29.83,0,*6F
1530590744.75,26649,15.31,73784.5,-0.91,-29.17,-29.61,0,*66
1530590745.97,26650,15.31,73784.8,-0.91,-28.69,-29.13,0,*63
1530590747.19,26651,15.31,73786.5,-0.91,-28.69,-29.01,0,*61
1530590748.46,26652,15.31,73784.5,-0.89,-28.63,-29.29,0,*6B
1530590749.7,26653,15.31,73786.3,-0.85,-28.75,-29.23,0,*6B
1530590750.96,26654,15.31,73784.3,-0.85,-28.75,-29.29,0,*66
1530590752.18,26655,15.31,73782.8,-0.85,-28.97,-29.45,0,*61
1530590753.44,26656,15.31,73784.3,-0.85,-28.91,-29.45,0,*64
1530590754.66,26657,15.31,73784.0,-0.85,-28.97,-29.57,0,*60
1530590755.94,26658,15.31,73782.0,-0.83,-28.75,-29.35,0,*61
1530590757.19,26659,15.31,73782.3,-0.83,-28.75,-29.23,0,*67
1530590758.45,26660,15.31,73780.5,-0.85,-28.75,-29.29,0,*61
1530590759.72,26661,15.31,73782.5,-0.85,-28.79,-29.39,0,*6D
1530590760.97,26662,15.31,73780.8,-0.83,-28.75,-29.23,0,*6F
1530590762.19,26663,15.31,73780.8,-0.83,-28.69,-29.23,0,*63
1530590763.45,26664,15.31,73778.0,-0.81,-28.59,-29.01,0,*65
1530590764.7,26665,15.31,73782.3,-0.81,-28.47,-28.91,0,*63
1530590765.95,26666,15.31,73778.8,-0.79,-28.31,-28.91,0,*66
1530590767.19,26667,15.31,73776.8,-0.77,-28.43,-28.79,0,*6A
1530590768.41,26668,15.31,73780.5,-0.79,-28.15,-28.69,0,*69
1530590769.67,26669,15.31,73776.5,-0.79,-27.99,-28.53,0,*6A
1530590770.89,26670,15.31,73782.3,-0.79,-28.15,-28.69,0,*60
1530590772.15,26671,15.31,73784.8,-0.77,-28.25,-28.63,0,*66
1530590773.37,26672,15.31,73782.8,-0.77,-27.93,-28.47,0,*61
1530590774.62,26673,15.31,73782.0,-0.75,-27.93,-28.43,0,*66
1530590775.9,26674,15.31,73782.3,-0.75,-28.05,-28.59,0,*6A
1530590777.19,26675,15.31,73784.3,-0.75,-28.05,-28.59,0,*6B
1530590778.47,26676,15.31,73784.3,-0.75,-28.21,-28.63,0,*67
1530590779.72,26677,15.31,73786.3,-0.71,-28.05,-28.53,0,*67
1530590781.0,26678,15.31,73784.0,-0.71,-28.05,-28.59,0,*62
1530590782.27,26679,15.31,73786.3,-0.71,-27.99,-28.43,0,*62
1530590783.49,26680,15.31,73784.3,-0.69,-27.83,-28.37,0,*65
1530590784.71,26681,15.31,73784.0,-0.69,-27.83,-28.53,0,*66
1530590785.94,26682,15.31,73786.0,-0.69,-27.99,-28.53,0,*6E
1530590787.17,26683,15.31,73786.3,-0.67,-27.93,-28.37,0,*69
1530590788.42,26684,15.31,73780.8,-0.67,-27.83,-28.31,0,*69
1530590789.69,26685,15.31,73786.5,-0.67,-27.83,-28.25,0,*6D
1530590790.98,26686,15.31,73784.8,-0.63,-27.61,-28.25,0,*66
1530590792.21,26687,15.31,73786.5,-0.61,-27.71,-28.25,0,*64
1530590793.47,26688,15.31,73784.5,-0.61,-27.61,-28.05,0,*68
1530590794.72,26689,15.31,73786.8,-0.61,-27.45,-28.09,0,*63
1530590795.98,26690,15.31,73784.5,-0.59,-27.51,-27.99,0,*63
1530590797.23,26691,15.31,73788.0,-0.57,-27.39,-27.99,0,*62
1530590798.48,26692,15.31,73784.0,-0.57,-27.39,-28.05,0,*6B
1530590799.71,26693,15.31,73786.8,-0.57,-27.51,-28.05,0,*64
1530590800.93,26694,15.31,73784.0,-0.53,-27.45,-27.93,0,*62
1530590802.15,26695,15.31,73788.8,-0.53,-27.35,-27.93,0,*64
1530590803.41,26696,15.31,73788.3,-0.53,-27.45,-27.99,0,*6A
1530590804.64,26697,15.31,73784.5,-0.53,-27.61,-28.15,0,*66
1530590805.89,26698,15.31,73788.3,-0.51,-27.71,-28.09,0,*67
1530590807.15,26699,15.31,73786.3,-0.51,-27.71,-28.25,0,*68
1530590808.38,26700,15.38,73792.0,-0.49,-27.77,-28.25,0,*66
1530590809.61,26701,15.31,73786.5,-0.49,-27.77,-28.25,0,*67
1530590810.82,26702,15.31,73790.5,-0.49,-27.89,-28.31,0,*60
1530590812.05,26703,15.31,73786.0,-0.49,-27.89,-28.43,0,*64
1530590813.29,26704,15.31,73788.0,-0.47,-27.83,-28.37,0,*64
1530590814.54,26705,15.31,73788.0,-0.47,-27.83,-28.37,0,*65
1530590815.79,26706,15.31,73790.0,-0.43,-27.83,-28.31,0,*64
1530590816.99,26707,15.31,73788.0,-0.45,-27.89,-28.37,0,*6F
1530590818.23,26708,15.31,73790.8,-0.45,-27.83,-28.43,0,*69
1530590819.48,26709,15.31,73792.0,-0.39,-27.71,-28.25,0,*6E
1530590820.74,26710,15.31,73788.0,-0.43,-27.83,-28.31,0,*63
1530590821.97,26711,15.31,73794.0,-0.43,-27.77,-28.31,0,*69
1530590823.19,26712,15.31,73790.8,-0.43,-27.93,-28.31,0,*60
1530590824.43,26713,15.31,73794.3,-0.39,-27.77,-28.31,0,*66
1530590825.67,26714,15.31,73792.0,-0.35,-27.83,-28.37,0,*60
1530590826.9,26715,15.31,73788.8,-0.37,-27.89,-28.43,0,*6A
1530590828.1,26716,15.31,73788.5,-0.37,-27.93,-28.37,0,*61
1530590829.38,26717,15.38,73794.3,-0.35,-28.05,-28.43,0,*61
1530590830.6,26718,15.31,73790.5,-0.35,-27.93,-28.53,0,*6F
1530590831.86,26719,15.31,73794.0,-0.35,-28.09,-28.53,0,*62
1530590833.11,26720,15.31,73794.0,-0.35,-28.25,-28.85,0,*6D
1530590834.37,26721,15.38,73794.3,-0.35,-28.25,-28.85,0,*6C
1530590835.61,26722,15.31,73790.5,-0.33,-28.25,-28.85,0,*69
1530590836.86,26723,15.31,73792.8,-0.33,-28.21,-28.75,0,*63
1530590838.14,26724,15.31,73792.0,-0.31,-27.99,-28.63,0,*6D
1530590839.36,26725,15.31,73790.8,-0.31,-28.15,-28.69,0,*6D
1530590840.62,26726,15.31,73788.8,-0.31,-28.37,-28.91,0,*69
1530590841.87,26727,15.31,73792.8,-0.31,-28.37,-28.91,0,*68
1530590843.13,26728,15.31,73790.8,-0.31,-28.37,-28.91,0,*67
1530590844.4,26729,15.31,73788.5,-0.31,-28.47,-28.91,0,*61
1530590845.67,26730,15.38,73792.8,-0.31,-28.47,-28.91,0,*69
1530590846.94,26731,15.31,73790.3,-0.31,-28.47,-29.01,0,*60
1530590848.17,26732,15.31,73792.0,-0.29,-28.43,-28.85,0,*63
1530590849.42,26733,15.31,73794.0,-0.29,-28.25,-28.79,0,*61
1530590850.65,26734,15.31,73790.3,-0.27,-28.31,-28.85,0,*6E
1530590851.89,26735,15.31,73792.0,-0.27,-28.43,-28.97,0,*69
1530590853.11,26736,15.38,73792.8,-0.29,-28.43,-28.97,0,*64
1530590854.38,26737,15.38,73792.3,-0.27,-28.47,-29.01,0,*61
1530590855.62,26738,15.31,73790.8,-0.27,-28.43,-28.97,0,*64
1530590856.9,26739,15.38,73792.8,-0.27,-28.63,-29.01,0,*69
1530590858.17,26740,15.31,73794.5,-0.27,-28.47,-29.01,0,*61
1530590859.4,26741,15.38,73792.8,-0.27,-28.47,-28.97,0,*6E
1530590860.67,26742,15.31,73794.5,-0.27,-28.59,-29.13,0,*6F
1530590861.94,26743,15.31,73794.8,-0.27,-28.79,-29.29,0,*65
1530590863.19,26744,15.31,73792.0,-0.29,-28.75,-29.17,0,*6D
1530590864.39,26745,15.31,73794.0,-0.25,-28.53,-28.97,0,*6D
1530590865.62,26746,15.31,73794.8,-0.25,-28.37,-28.91,0,*6A
1530590866.87,26747,15.31,73794.0,-0.27,-28.43,-28.97,0,*6C
1530590868.12,26748,15.31,73794.0,-0.25,-28.21,-28.75,0,*69
1530590869.37,26749,15.38,73794.0,-0.25,-28.05,-28.59,0,*60
1530590870.63,26750,15.38,73798.8,-0.25,-28.05,-28.59,0,*68
1530590871.88,26751,15.31,73794.5,-0.25,-28.25,-28.75,0,*65
1530590873.13,26752,15.38,73796.0,-0.23,-27.71,-28.25,0,*6B
1530590874.38,26753,15.38,73796.3,-0.23,-27.23,-27.89,0,*64
1530590875.63,26754,15.31,73792.0,-0.23,-26.93,-27.51,0,*6C
1530590876.83,26755,15.31,73792.5,-0.21,-26.65,-27.13,0,*60
1530590878.1,26756,15.31,73792.8,-0.17,-26.65,-27.19,0,*6C
1530590879.33,26757,15.38,73792.8,-0.17,-27.13,-27.67,0,*64
1530590880.6,26758,15.38,73792.5,-0.17,-27.61,-28.15,0,*64
1530590881.83,26759,15.31,73794.5,-0.15,-27.67,-28.25,0,*62
1530590883.08,26760,15.38,73798.3,-0.15,-27.83,-28.59,0,*69
1530590884.34,26761,15.38,73796.0,-0.15,-28.09,-28.63,0,*6C
1530590885.56,26762,15.38,73792.0,-0.13,-28.15,-28.69,0,*6E
1530590886.79,26763,15.38,73790.8,-0.13,-28.15,-28.69,0,*6F
1530590887.99,26764,15.38,73792.5,-0.15,-28.15,-28.69,0,*6E
1530590889.21,26765,15.38,73790.8,-0.15,-28.15,-28.79,0,*6E
1530590890.45,26766,15.31,73790.3,-0.13,-28.15,-28.79,0,*6B
1530590891.7,26767,15.38,73790.5,-0.13,-28.15,-28.79,0,*6A
1530590892.95,26768,15.38,73788.3,-0.13,-28.09,-28.69,0,*69
1530590894.2,26769,15.38,73788.8,-0.13,-28.09,-28.69,0,*68
1530590895.48,26770,15.38,73790.3,-0.13,-28.09,-28.79,0,*61
1530590896.75,26771,15.38,73790.5,-0.13,-28.25,-28.79,0,*6E
1530590898.0,26772,15.38,73788.0,-0.11,-28.21,-28.75,0,*67